SCP
0 -0 0 -0 0 0 0 0 0 0 0 0 0 0 -0 0 0 0 -0 0 0 0 0 0 0 0 0 0 0 0 0 0 0 0 0 0 0 0 0 0 0 0 0 0
0 0 0 0 0 0 0 0 0 0 0 -0 0 -0 0 -0 0 0 0 0 0 0 0 0 0 0 0 0 0 0 0 0 0 0 0 0 0 0 0 0 0 0 0 0
0 0 0 0 0 0 0 -0 0 0 0 0 0 -0 -0 0 0 0 0 0 0 0 0 0 0 0 0 0 0 0 0 0 0 0 0 0 0 0 0 0 0 0 0 0
0 0 0 -0 0 0 0 0 0 0 0 0 -0 -0 0 0 0 0 0 0 0 0 0 0 0 0 0 0 0 0 0 0 0 0 0 0 0 0 0 0 0 0 0 0
0 0 0 0 -0 -0 0 0 0 0 0 0 0 0 0 0 0 0 0 0 0 0 1 0 0 0 0 0 0 0 0 0 0 0 0 0 0 0 0 0 0 0 0 0
0 0 0 0 -0 0 0 0 0 0 0 0 0 0 0 0 1 1 0 0 0 0 0 0 0 0 0 0 0 0 0 0 0 0 0 0 0 0 0 0 0 0 0 0
0 0 0 0 0 0 0 0 0 0 0 0 0 0 0 0 0 1 0 0 0 1 1 1 1 0 0 0 0 0 0 0 0 0 0 0 0 0 0 0 0 0 0 0
0 0 0 0 0 0 0 0 -0 0 1 0 0 0 0 1 0 0 -0 -0 0 0 0 0 0 0 0 0 0 0 0 0 0 0 0 0 0 0 0 0 0 0 0 0
0 0 0 0 0 0 0 0 -0 0 0 0 -0 -1 1 1 -0 0 0 0 0 0 0 0 0 0 0 0 0 0 0 0 0 0 0 0 0 0 0 0 0 0 0 0
0 0 0 0 0 0 0 0 -0 0 -0 -0 0 1 1 2 0 0 0 0 0 0 0 0 0 0 0 0 0 0 0 0 0 0 0 0 0 0 0 0 0 0 0 0
0 0 0 0 0 0 0 0 0 -0 -0 0 1 1 0 0 0 0 0 0 0 0 0 0 0 0 0 0 0 0 0 0 0 0 0 0 0 0 0 0 0 0 0 0
0 0 0 0 0 0 0 0 0 0 0 -0 0 -0 0 0 0 0 0 0 0 0 0 0 0 0 0 0 0 0 0 0 0 0 0 0 0 0 0 0 0 0 0 0
-0 -0 0 -0 0 0 1 1 0 0 0 0 0 0 0 0 0 0 0 0 0 0 0 0 0 0 0 0 0 0 0 0 0 0 0 0 0 0 0 0 0 0 0 0
0 0 0 -0 -0 0 0 0 0 0 0 0 0 0 0 0 0 0 0 0 0 0 0 0 0 0 0 0 0 0 0 0 0 0 0 0 0 0 0 0 0 0 0 0
0 0 0 0 -0 0 0 0 0 -0 0 0 0 0 0 0 0 0 0 0 0 0 0 0 0 0 0 0 0 0 0 0 0 0 0 0 0 0 0 0 0 0 0 0
0 0 0 -0 -0 0 0 0 -0 -0 0 0 0 0 0 0 0 0 0 0 0 0 0 0 0 0 0 0 0 0 0 0 0 0 0 0 0 0 0 0 0 0 0 0
0 0 -0 0 0 0 -0 0 0 0 0 0 0 0 0 0 0 0 0 0 0 0 0 0 0 0 0 0 0 0 0 0 0 0 0 0 0 0 0 0 0 0 0 0
0 0 -0 0 0 0 0 0 0 0 0 0 0 0 0 0 0 0 0 0 0 0 0 0 0 0 0 0 0 0 0 0 0 0 0 0 0 0 0 0 0 0 0 0
0 0 -0 -0 0 0 0 0 0 0 0 0 0 0 0 0 0 0 0 0 0 0 0 0 0 0 0 0 0 0 0 0 0 0 0 0 0 0 0 0 0 0 0 0
-0 -0 -0 -0 0 -0 0 0 0 0 0 0 0 0 0 0 0 0 0 0 0 0 0 0 0 0 0 0 0 0 0 0 0 0 0 0 0 0 0 0 0 0 0 0
0 -0 -0 0 0 -0 -0 0 -0 0 0 0 0 0 0 0 0 0 0 0 -0 0 0 0 0 0 0 0 0 0 0 0 0 0 0 0 0 0 0 0 0 0 0 0
0 0 0 -0 -0 0 0 0 0 0 0 0 0 0 0 0 0 0 0 0 0 0 0 0 0 0 0 0 0 0 0 0 0 0 0 0 0 0 0 0 0 0 0 0
0 0 0 -0 -0 0 0 0 0 0 0 0 0 0 0 0 0 0 0 0 0 0 0 0 0 0 0 0 0 0 0 0 0 0 0 0 0 0 0 0 0 0 0 0
0 0 0 0 0 0 0 0 0 0 0 0 0 0 0 0 0 0 0 0 0 0 0 0 0 0 0 0 0 0 0 0 0 0 0 0 0 0 0 0 0 0 0 0
0 0 0 0 0 0 0 0 0 0 0 0 0 0 0 0 0 -0 0 0 0 0 0 0 0 0 0 0 0 0 0 0 0 0 0 0 0 0 0 0 0 0 0 0
0 0 0 0 0 0 0 0 0 0 0 0 0 0 0 0 0 0 0 0 0 0 0 0 0 0 0 -0 -0 -0 -0 -0 0 0 0 0 0 0 0 0 0 0 0 0
0 0 0 0 0 0 0 0 0 0 0 0 0 0 0 0 0 0 0 0 0 0 0 0 0 0 0 0 0 -0 0 0 0 0 0 0 0 0 0 0 0 0 0 0
Wind_Speed_500mb
14 15 9 13 15 15 12 13 13 14 26 37 43 30 24 42 36 53 72 65 54 48 37 30 29 29 25 22 22 18 15 11 10 9 6 3 2 6 6 4 2 4 5 6
8 6 11 10 20 16 9 8 7 21 6 17 30 42 36 43 32 54 62 58 50 33 25 20 29 29 22 23 19 12 8 7 7 6 4 9 7 5 5 6 6 4 8 9
12 4 10 10 17 13 10 5 20 15 18 19 14 26 31 44 48 57 53 46 37 22 16 24 31 27 26 22 14 13 8 10 10 7 8 17 13 7 9 9 11 11 14 14
8 8 5 19 10 14 5 14 10 18 29 35 38 34 48 61 67 53 48 40 26 24 24 28 31 31 29 28 23 21 17 17 13 11 13 10 9 11 12 14 16 15 14 15
8 8 10 20 5 5 4 6 3 25 25 38 43 33 24 66 67 52 48 43 37 32 32 35 35 38 30 30 31 25 22 17 15 15 16 14 14 15 18 18 15 12 12 12
5 10 14 12 21 35 6 4 8 49 36 27 31 10 14 63 61 59 56 54 46 39 40 42 47 35 27 26 22 15 12 11 12 11 12 15 16 17 13 10 5 8 10 5
4 6 5 18 39 28 6 15 36 38 41 45 12 18 12 44 61 64 65 57 50 48 45 47 41 30 21 17 14 14 12 13 11 11 13 14 15 13 7 9 8 6 5 7
4 2 4 35 18 13 13 8 61 43 55 37 39 45 31 62 69 72 66 60 52 53 48 42 31 23 21 22 19 17 16 16 12 10 7 10 14 10 6 10 9 14 18 22
9 9 12 26 16 19 22 20 23 55 72 43 64 46 58 80 77 71 68 65 64 60 54 42 35 29 25 24 19 18 18 13 9 4 7 9 11 11 7 8 14 22 22 28
5 6 11 34 14 27 11 4 48 62 67 83 76 83 88 83 80 80 73 69 63 48 36 38 30 23 19 19 18 15 8 2 3 2 5 5 10 12 14 17 20 22 25 28
11 15 31 21 12 18 3 2 26 67 62 56 89 90 92 91 85 73 63 55 44 36 36 32 25 20 15 11 9 9 8 9 5 2 3 5 10 14 12 16 19 23 29 29
11 19 14 26 26 21 13 26 2 19 21 67 83 91 90 77 69 63 57 48 40 33 29 24 19 15 9 6 5 11 13 6 3 2 4 9 18 16 18 24 28 29 17 20
18 33 24 24 29 18 22 22 27 2 14 62 67 78 75 71 61 53 49 41 29 23 17 14 11 8 6 7 7 8 19 19 10 3 9 12 9 19 26 18 13 28 35 39
32 29 20 21 3 11 19 25 32 24 51 61 73 70 64 62 62 55 44 31 23 20 17 14 12 11 8 12 18 20 12 3 2 6 7 13 19 14 9 21 29 35 29 31
59 59 37 6 6 28 44 60 68 51 62 64 65 69 63 63 54 42 33 28 26 23 20 17 16 11 5 9 16 9 10 3 6 10 18 14 7 16 23 33 33 22 34 41
44 48 51 54 48 23 45 58 61 74 77 61 61 50 42 42 40 34 33 31 30 28 21 22 21 11 17 19 9 1 10 18 8 16 7 9 15 25 32 32 28 29 31 51
32 38 39 39 38 59 66 78 96 77 73 65 55 52 46 40 40 37 33 27 23 21 23 27 20 13 13 8 2 8 7 10 24 6 5 14 24 27 29 28 28 28 37 47
23 21 10 12 15 15 61 74 73 72 68 60 56 53 46 43 41 37 31 30 26 26 28 25 18 13 10 5 2 13 3 20 10 5 12 18 23 25 29 30 33 31 43 53
38 30 31 23 28 18 45 62 65 63 58 55 48 39 34 34 34 33 35 31 34 34 28 22 20 17 9 4 4 17 13 16 6 12 18 23 25 27 32 34 33 39 47 53
43 44 39 36 37 38 51 65 66 58 49 43 38 37 39 36 38 41 34 32 25 25 28 25 19 10 7 9 6 11 11 4 9 20 25 24 26 29 36 36 47 44 48 53
44 41 37 34 34 47 54 66 58 49 54 41 35 41 46 44 43 45 42 34 29 21 23 20 13 8 4 5 13 15 9 9 21 36 29 25 28 37 43 46 39 42 52 50
42 30 38 45 58 64 66 63 47 53 54 50 46 48 47 46 51 40 24 29 26 14 17 16 12 12 10 15 21 11 6 13 25 30 24 24 28 32 37 40 42 49 46 55
22 29 44 63 68 68 66 66 61 51 52 53 54 51 49 43 36 40 42 33 23 17 16 14 8 5 12 3 8 1 7 15 23 24 28 29 33 37 39 42 47 49 54 57
28 50 61 63 62 65 66 63 54 52 53 50 42 40 37 32 31 31 24 33 32 21 15 14 4 7 11 1 5 9 9 13 19 23 25 26 29 32 40 44 48 51 53 54
53 51 52 60 65 66 67 64 56 51 53 46 37 31 26 19 26 41 34 30 28 19 17 14 5 6 7 7 5 10 7 9 12 18 24 29 34 41 47 49 47 47 49 48
55 54 56 52 57 65 65 62 60 59 52 42 37 34 34 31 34 30 30 34 26 19 19 14 6 4 4 5 11 8 7 7 13 21 31 41 43 45 49 51 50 50 50 51
59 63 60 59 60 57 57 59 56 53 46 40 38 36 38 35 32 29 38 35 30 26 21 16 9 9 12 8 6 3 6 14 26 33 35 40 46 49 49 49 51 50 50 51
Wind_Direction_500mb
226 239 255 258 272 262 174 209 162 205 170 198 216 194 212 185 160 157 155 161 164 164 159 153 150 152 156 163 156 153 153 148 144 150 150 135 104 108 106 116 81 41 27 12
253 302 309 287 288 264 256 237 186 151 222 215 175 194 191 188 171 162 166 168 166 167 169 163 169 161 159 169 164 163 174 183 186 180 220 281 289 312 332 352 342 319 298 291
254 324 7 330 260 261 287 237 137 157 207 143 146 192 191 198 182 170 175 173 171 186 202 188 181 170 169 168 171 191 210 184 177 208 259 269 279 286 302 306 301 295 291 289
212 57 284 244 270 241 241 23 338 101 148 168 170 179 185 183 179 180 183 182 193 197 191 182 183 188 190 189 188 204 206 190 196 219 252 261 286 298 304 305 302 303 311 327
141 180 275 304 340 338 143 334 337 127 130 133 151 152 183 187 186 191 197 201 200 195 189 186 194 202 214 200 212 211 207 204 218 241 266 282 290 297 306 308 307 315 344 14
108 166 220 245 337 344 113 339 209 146 155 142 133 151 199 192 192 187 192 192 182 183 187 198 192 199 198 194 207 209 239 268 264 257 268 281 299 318 326 328 5 64 79 54
185 213 336 334 311 313 209 218 177 173 146 144 123 134 10 240 191 185 180 177 177 181 190 199 194 194 195 196 204 230 248 284 283 293 301 314 334 351 38 64 84 13 343 303
12 23 240 349 356 64 296 119 171 176 147 132 143 155 197 192 176 170 170 170 182 180 178 183 193 201 214 206 214 238 266 283 303 325 357 19 33 28 48 15 5 343 343 338
162 206 247 298 286 349 34 129 184 157 161 157 163 178 180 166 167 171 174 175 174 175 170 179 189 206 204 203 225 250 264 280 313 25 73 72 41 21 21 330 322 333 333 335
23 266 262 318 3 35 39 191 202 174 172 167 162 164 163 162 166 170 171 169 176 180 186 179 183 193 218 227 240 249 253 269 123 81 332 342 0 358 338 319 309 314 305 300
276 280 302 200 247 356 187 224 196 199 194 184 160 163 166 165 165 162 163 168 176 184 181 181 188 207 221 238 240 232 213 190 232 216 327 343 351 352 334 315 310 312 312 309
235 231 220 271 282 269 254 166 46 75 185 168 169 164 165 163 163 168 171 172 173 169 173 175 187 209 207 213 212 217 210 210 236 121 78 346 330 319 318 325 330 322 333 330
224 205 240 275 292 257 239 194 202 205 357 170 168 168 165 160 165 168 169 171 174 170 174 178 182 183 164 119 93 133 129 123 116 55 345 8 348 320 320 318 326 319 321 324
227 193 253 279 1 139 207 225 196 217 278 188 169 168 163 160 161 166 166 172 181 188 190 183 176 156 125 98 118 113 119 129 269 337 13 323 318 320 320 314 322 328 337 352
226 218 233 222 199 145 132 137 205 239 213 174 171 167 163 157 160 163 172 181 186 187 186 172 173 152 128 142 140 82 104 67 295 321 316 307 297 315 322 330 335 348 352 345
232 235 235 241 222 162 175 176 217 192 181 170 166 162 163 166 166 172 174 181 184 179 172 170 179 162 140 139 131 47 326 319 317 311 254 270 318 325 334 341 339 351 345 353
174 200 212 175 194 206 202 178 178 175 176 170 169 168 165 168 166 169 173 171 171 159 169 177 179 147 148 145 104 346 55 17 345 282 270 319 324 338 343 336 332 330 343 341
229 227 218 191 197 115 167 168 171 172 167 167 166 163 168 169 170 176 178 169 160 164 177 183 167 149 147 162 121 25 19 353 358 301 324 326 329 338 334 322 313 316 334 332
239 239 244 245 229 210 181 177 175 173 170 171 168 164 166 172 179 185 183 170 176 184 168 157 150 147 148 173 270 12 352 319 227 318 330 323 325 322 326 316 318 325 323 326
231 236 251 258 272 206 175 181 175 176 175 170 161 164 170 181 188 187 181 177 181 156 141 136 145 156 232 249 255 329 324 280 319 334 329 321 317 315 322 317 324 318 320 318
222 230 235 224 206 188 191 186 180 180 173 178 184 182 180 185 193 187 179 169 159 158 150 140 158 196 201 189 323 322 298 310 331 336 321 309 308 318 323 322 324 324 321 318
214 199 188 184 181 182 186 183 185 180 174 178 182 178 179 185 189 183 186 174 152 133 164 183 207 252 261 303 306 278 290 318 323 337 342 334 329 326 321 326 327 323 323 328
215 205 188 176 173 174 173 177 176 179 179 183 180 181 185 187 184 177 169 166 172 164 161 159 154 167 316 41 106 73 295 313 332 345 342 334 331 331 328 329 324 325 328 329
208 184 175 172 174 176 173 176 180 183 187 182 178 180 179 177 177 172 150 151 166 177 169 155 138 332 169 297 261 310 332 342 345 344 353 357 349 340 330 327 328 328 326 327
171 170 173 174 174 174 174 176 177 181 180 174 175 176 175 167 168 161 164 170 172 170 163 176 222 249 260 286 290 328 14 45 38 26 6 353 351 354 347 337 331 325 324 328
180 182 182 185 183 178 177 177 178 180 180 175 177 177 155 147 165 171 181 191 184 176 173 183 240 270 13 108 111 90 70 54 23 0 353 353 351 347 343 339 335 332 332 333
189 183 180 182 182 185 186 186 186 184 189 187 181 177 177 191 199 200 171 175 174 171 191 204 198 131 146 99 87 46 357 345 351 349 346 341 341 343 340 337 342 344 342 341
Wind_Speed_850mb
14 15 9 13 15 15 12 13 13 14 26 37 43 30 24 42 36 53 72 65 54 48 37 30 29 29 25 22 22 18 15 11 10 9 6 3 2 6 6 4 2 4 5 6
8 6 11 10 20 16 9 8 7 21 6 17 30 42 36 43 32 54 62 58 50 33 25 20 29 29 22 23 19 12 8 7 7 6 4 9 7 5 5 6 6 4 8 9
12 4 10 10 17 13 10 5 20 15 18 19 14 26 31 44 48 57 53 46 37 22 16 24 31 27 26 22 14 13 8 10 10 7 8 17 13 7 9 9 11 11 14 14
8 8 5 19 10 14 5 14 10 18 29 35 38 34 48 61 67 53 48 40 26 24 24 28 31 31 29 28 23 21 17 17 13 11 13 10 9 11 12 14 16 15 14 15
8 8 10 20 5 5 4 6 3 25 25 38 43 33 24 66 67 52 48 43 37 32 32 35 35 38 30 30 31 25 22 17 15 15 16 14 14 15 18 18 15 12 12 12
5 10 14 12 21 35 6 4 8 49 36 27 31 10 14 63 61 59 56 54 46 39 40 42 47 35 27 26 22 15 12 11 12 11 12 15 16 17 13 10 5 8 10 5
4 6 5 18 39 28 6 15 36 38 41 45 12 18 12 44 61 64 65 57 50 48 45 47 41 30 21 17 14 14 12 13 11 11 13 14 15 13 7 9 8 6 5 7
4 2 4 35 18 13 13 8 61 43 55 37 39 45 31 62 69 72 66 60 52 53 48 42 31 23 21 22 19 17 16 16 12 10 7 10 14 10 6 10 9 14 18 22
9 9 12 26 16 19 22 20 23 55 72 43 64 46 58 80 77 71 68 65 64 60 54 42 35 29 25 24 19 18 18 13 9 4 7 9 11 11 7 8 14 22 22 28
5 6 11 34 14 27 11 4 48 62 67 83 76 83 88 83 80 80 73 69 63 48 36 38 30 23 19 19 18 15 8 2 3 2 5 5 10 12 14 17 20 22 25 28
11 15 31 21 12 18 3 2 26 67 62 56 89 90 92 91 85 73 63 55 44 36 36 32 25 20 15 11 9 9 8 9 5 2 3 5 10 14 12 16 19 23 29 29
11 19 14 26 26 21 13 26 2 19 21 67 83 91 90 77 69 63 57 48 40 33 29 24 19 15 9 6 5 11 13 6 3 2 4 9 18 16 18 24 28 29 17 20
18 33 24 24 29 18 22 22 27 2 14 62 67 78 75 71 61 53 49 41 29 23 17 14 11 8 6 7 7 8 19 19 10 3 9 12 9 19 26 18 13 28 35 39
32 29 20 21 3 11 19 25 32 24 51 61 73 70 64 62 62 55 44 31 23 20 17 14 12 11 8 12 18 20 12 3 2 6 7 13 19 14 9 21 29 35 29 31
59 59 37 6 6 28 44 60 68 51 62 64 65 69 63 63 54 42 33 28 26 23 20 17 16 11 5 9 16 9 10 3 6 10 18 14 7 16 23 33 33 22 34 41
44 48 51 54 48 23 45 58 61 74 77 61 61 50 42 42 40 34 33 31 30 28 21 22 21 11 17 19 9 1 10 18 8 16 7 9 15 25 32 32 28 29 31 51
32 38 39 39 38 59 66 78 96 77 73 65 55 52 46 40 40 37 33 27 23 21 23 27 20 13 13 8 2 8 7 10 24 6 5 14 24 27 29 28 28 28 37 47
23 21 10 12 15 15 61 74 73 72 68 60 56 53 46 43 41 37 31 30 26 26 28 25 18 13 10 5 2 13 3 20 10 5 12 18 23 25 29 30 33 31 43 53
38 30 31 23 28 18 45 62 65 63 58 55 48 39 34 34 34 33 35 31 34 34 28 22 20 17 9 4 4 17 13 16 6 12 18 23 25 27 32 34 33 39 47 53
43 44 39 36 37 38 51 65 66 58 49 43 38 37 39 36 38 41 34 32 25 25 28 25 19 10 7 9 6 11 11 4 9 20 25 24 26 29 36 36 47 44 48 53
44 41 37 34 34 47 54 66 58 49 54 41 35 41 46 44 43 45 42 34 29 21 23 20 13 8 4 5 13 15 9 9 21 36 29 25 28 37 43 46 39 42 52 50
42 30 38 45 58 64 66 63 47 53 54 50 46 48 47 46 51 40 24 29 26 14 17 16 12 12 10 15 21 11 6 13 25 30 24 24 28 32 37 40 42 49 46 55
22 29 44 63 68 68 66 66 61 51 52 53 54 51 49 43 36 40 42 33 23 17 16 14 8 5 12 3 8 1 7 15 23 24 28 29 33 37 39 42 47 49 54 57
28 50 61 63 62 65 66 63 54 52 53 50 42 40 37 32 31 31 24 33 32 21 15 14 4 7 11 1 5 9 9 13 19 23 25 26 29 32 40 44 48 51 53 54
53 51 52 60 65 66 67 64 56 51 53 46 37 31 26 19 26 41 34 30 28 19 17 14 5 6 7 7 5 10 7 9 12 18 24 29 34 41 47 49 47 47 49 48
55 54 56 52 57 65 65 62 60 59 52 42 37 34 34 31 34 30 30 34 26 19 19 14 6 4 4 5 11 8 7 7 13 21 31 41 43 45 49 51 50 50 50 51
59 63 60 59 60 57 57 59 56 53 46 40 38 36 38 35 32 29 38 35 30 26 21 16 9 9 12 8 6 3 6 14 26 33 35 40 46 49 49 49 51 50 50 51
Wind_Direction_850mb
226 239 255 258 272 262 174 209 162 205 170 198 216 194 212 185 160 157 155 161 164 164 159 153 150 152 156 163 156 153 153 148 144 150 150 135 104 108 106 116 81 41 27 12
253 302 309 287 288 264 256 237 186 151 222 215 175 194 191 188 171 162 166 168 166 167 169 163 169 161 159 169 164 163 174 183 186 180 220 281 289 312 332 352 342 319 298 291
254 324 7 330 260 261 287 237 137 157 207 143 146 192 191 198 182 170 175 173 171 186 202 188 181 170 169 168 171 191 210 184 177 208 259 269 279 286 302 306 301 295 291 289
212 57 284 244 270 241 241 23 338 101 148 168 170 179 185 183 179 180 183 182 193 197 191 182 183 188 190 189 188 204 206 190 196 219 252 261 286 298 304 305 302 303 311 327
141 180 275 304 340 338 143 334 337 127 130 133 151 152 183 187 186 191 197 201 200 195 189 186 194 202 214 200 212 211 207 204 218 241 266 282 290 297 306 308 307 315 344 14
108 166 220 245 337 344 113 339 209 146 155 142 133 151 199 192 192 187 192 192 182 183 187 198 192 199 198 194 207 209 239 268 264 257 268 281 299 318 326 328 5 64 79 54
185 213 336 334 311 313 209 218 177 173 146 144 123 134 10 240 191 185 180 177 177 181 190 199 194 194 195 196 204 230 248 284 283 293 301 314 334 351 38 64 84 13 343 303
12 23 240 349 356 64 296 119 171 176 147 132 143 155 197 192 176 170 170 170 182 180 178 183 193 201 214 206 214 238 266 283 303 325 357 19 33 28 48 15 5 343 343 338
162 206 247 298 286 349 34 129 184 157 161 157 163 178 180 166 167 171 174 175 174 175 170 179 189 206 204 203 225 250 264 280 313 25 73 72 41 21 21 330 322 333 333 335
23 266 262 318 3 35 39 191 202 174 172 167 162 164 163 162 166 170 171 169 176 180 186 179 183 193 218 227 240 249 253 269 123 81 332 342 0 358 338 319 309 314 305 300
276 280 302 200 247 356 187 224 196 199 194 184 160 163 166 165 165 162 163 168 176 184 181 181 188 207 221 238 240 232 213 190 232 216 327 343 351 352 334 315 310 312 312 309
235 231 220 271 282 269 254 166 46 75 185 168 169 164 165 163 163 168 171 172 173 169 173 175 187 209 207 213 212 217 210 210 236 121 78 346 330 319 318 325 330 322 333 330
224 205 240 275 292 257 239 194 202 205 357 170 168 168 165 160 165 168 169 171 174 170 174 178 182 183 164 119 93 133 129 123 116 55 345 8 348 320 320 318 326 319 321 324
227 193 253 279 1 139 207 225 196 217 278 188 169 168 163 160 161 166 166 172 181 188 190 183 176 156 125 98 118 113 119 129 269 337 13 323 318 320 320 314 322 328 337 352
226 218 233 222 199 145 132 137 205 239 213 174 171 167 163 157 160 163 172 181 186 187 186 172 173 152 128 142 140 82 104 67 295 321 316 307 297 315 322 330 335 348 352 345
232 235 235 241 222 162 175 176 217 192 181 170 166 162 163 166 166 172 174 181 184 179 172 170 179 162 140 139 131 47 326 319 317 311 254 270 318 325 334 341 339 351 345 353
174 200 212 175 194 206 202 178 178 175 176 170 169 168 165 168 166 169 173 171 171 159 169 177 179 147 148 145 104 346 55 17 345 282 270 319 324 338 343 336 332 330 343 341
229 227 218 191 197 115 167 168 171 172 167 167 166 163 168 169 170 176 178 169 160 164 177 183 167 149 147 162 121 25 19 353 358 301 324 326 329 338 334 322 313 316 334 332
239 239 244 245 229 210 181 177 175 173 170 171 168 164 166 172 179 185 183 170 176 184 168 157 150 147 148 173 270 12 352 319 227 318 330 323 325 322 326 316 318 325 323 326
231 236 251 258 272 206 175 181 175 176 175 170 161 164 170 181 188 187 181 177 181 156 141 136 145 156 232 249 255 329 324 280 319 334 329 321 317 315 322 317 324 318 320 318
222 230 235 224 206 188 191 186 180 180 173 178 184 182 180 185 193 187 179 169 159 158 150 140 158 196 201 189 323 322 298 310 331 336 321 309 308 318 323 322 324 324 321 318
214 199 188 184 181 182 186 183 185 180 174 178 182 178 179 185 189 183 186 174 152 133 164 183 207 252 261 303 306 278 290 318 323 337 342 334 329 326 321 326 327 323 323 328
215 205 188 176 173 174 173 177 176 179 179 183 180 181 185 187 184 177 169 166 172 164 161 159 154 167 316 41 106 73 295 313 332 345 342 334 331 331 328 329 324 325 328 329
208 184 175 172 174 176 173 176 180 183 187 182 178 180 179 177 177 172 150 151 166 177 169 155 138 332 169 297 261 310 332 342 345 344 353 357 349 340 330 327 328 328 326 327
171 170 173 174 174 174 174 176 177 181 180 174 175 176 175 167 168 161 164 170 172 170 163 176 222 249 260 286 290 328 14 45 38 26 6 353 351 354 347 337 331 325 324 328
180 182 182 185 183 178 177 177 178 180 180 175 177 177 155 147 165 171 181 191 184 176 173 183 240 270 13 108 111 90 70 54 23 0 353 353 351 347 343 339 335 332 332 333
189 183 180 182 182 185 186 186 186 184 189 187 181 177 177 191 199 200 171 175 174 171 191 204 198 131 146 99 87 46 357 345 351 349 346 341 341 343 340 337 342 344 342 341